This is the latest recevied weather packets stored in our database for station/object AI5BL. If no packets are shown the sender has not sent any weather packets the latest 10 day(s).
| Time | Temp. | Humidity | Pressure | Rain* | Wind** | Luminosity | Snow |
|---|---|---|---|---|---|---|---|
| 1788451126 | 35° C | 54% | 1018.7 hPa | 0 mm | - | 194 W/m² | - |
| 1788450821 | 35° C | 56% | 1018.7 hPa | 0 mm | - | 262 W/m² | - |
| 1788450516 | 33.89° C | 56% | 1018.8 hPa | 0 mm | - | 689 W/m² | - |
| 1788450232 | 33.89° C | 62% | 1018.5 hPa | 0 mm | - | 221 W/m² | - |
| 1788449907 | 35.56° C | 63% | 1018.6 hPa | 0 mm | - | 257 W/m² | - |
| 1788449603 | 33.89° C | 64% | 1018.6 hPa | 0 mm | - | 419 W/m² | - |
| 1788449300 | 33.89° C | 69% | 1018.5 hPa | 0 mm | - | 585 W/m² | - |
| 1788448995 | 32.78° C | 71% | 1018.8 hPa | 0 mm | - | 615 W/m² | - |
| 1788448690 | 32.78° C | 71% | 1018.6 hPa | 0 mm | - | 523 W/m² | - |
| 1788448386 | 32.78° C | 70% | 1018.7 hPa | 0 mm | - | 482 W/m² | - |
| 1788448085 | 33.89° C | 63% | 1018.5 hPa | 0 mm | - | 517 W/m² | - |
| 1788447779 | 33.33° C | 63% | 1018.4 hPa | 0 mm | - | 126 W/m² | - |
| 1788447475 | 33.89° C | 64% | 1018.4 hPa | 0 mm | - | 459 W/m² | - |
| 1788447170 | 33.33° C | 69% | 1018.7 hPa | 0 mm | - | 435 W/m² | - |
| 1788446868 | 33.33° C | 66% | 1018.6 hPa | 0 mm | - | 426 W/m² | - |
| 1788446565 | 32.78° C | 73% | 1018.6 hPa | 0 mm | - | 405 W/m² | - |
| 1788446260 | 33.33° C | 66% | 1018.6 hPa | 0 mm | - | 395 W/m² | - |
| 1788445956 | 32.78° C | 67% | 1018.8 hPa | 0 mm | - | 378 W/m² | - |
| 1788445652 | 31.67° C | 71% | 1018.8 hPa | 0 mm | - | 362 W/m² | - |
| 1788445043 | 31.67° C | 73% | 1018.7 hPa | 0 mm | - | 331 W/m² | - |
| 1788444739 | 31.11° C | 73% | 1018.6 hPa | 0 mm | - | 317 W/m² | - |
| 1788444435 | 30.56° C | 75% | 1018.6 hPa | 0 mm | - | 319 W/m² | - |
| 1788444134 | 30.56° C | 77% | 1018.6 hPa | 0 mm | - | 285 W/m² | - |
| 1788443830 | 30.56° C | 76% | 1018.7 hPa | 0 mm | - | 272 W/m² | - |
| 1788443526 | 30.56° C | 75% | 1018.7 hPa | 0 mm | - | 250 W/m² | - |
* Rain latest hour (hover to see other rain measurements)
** Current wind speed in m/s (hover to see current wind gust speed)